Carlsbad, NM

5:53 PM MDT on May 29, 2017 (GMT -0600)
Cavern City

Weather History for KCNM - April, 2014

Change the Weather History Date:

Thursday, April 24, 2014

  Actual Average Record
Temperature  
Mean Temperature 66 °F -  
Max Temperature 80 °F 82 °F 98 °F (1959)
Min Temperature 52 °F 48 °F 33 °F (2013)
Growing Degree Days 16 (Base 50)    
Moisture  
Dew Point 22 °F    
Average Humidity 20    
Maximum Humidity 41    
Minimum Humidity 11    
Precipitation  
Precipitation 0.00 in - - ()
Sea Level Pressure  
Sea Level Pressure 29.83 in    
Wind  
Wind Speed 10 mph (WSW)    
Max Wind Speed 21 mph    
Max Gust Speed 28 mph    
Visibility 9 miles    
Events      
Averages and records for this station are not official NWS values.
T = Trace of Precipitation, MM = Missing Value Source: NWS Daily Summary

Daily Weather History Graph

Daily Weather History Graph

Search for Another Location

Airport or City:

Trip Planner

Search our weather history database for the weather conditions in past years. The results will help you decide how hot, cold, wet, or windy it might be!

Date:

Astronomy

Apr. 24, 2014 Rise Set
Actual Time 6:17 AM MDT 7:33 PM MDT
Civil Twilight 5:51 AM MDT 7:58 PM MDT
Nautical Twilight 5:21 AM MDT 8:29 PM MDT
Astronomical Twilight 4:49 AM MDT 9:01 PM MDT
Moon 3:12 AM MDT (4/24) 3:07 PM MDT (4/24)
Length of Visible Light 14h 06m
Length of Day
13h 15m
Waning Crescent, 24% of the Moon is Illuminated
Apr 24
Waning Crescent
Apr 29
New
May 6
First Quarter
May 14
Full
May 21
Last Quarter

Hourly Weather History & Observations

Time (MDT) Temp. Dew Point Humidity Pressure Visibility Wind Dir Wind Speed Gust Speed Precip Events Conditions
12:53 AM 62.1 °F 28.9 °F 29% 29.65 in 10.0 mi WSW 11.5 mph - N/A   Clear
1:53 AM 61.0 °F 28.9 °F 30% 29.68 in 10.0 mi WNW 10.4 mph - N/A   Clear
2:53 AM 57.9 °F 27.0 °F 31% 29.70 in 10.0 mi WNW 11.5 mph - N/A   Clear
3:53 AM 54.0 °F 28.9 °F 38% 29.73 in 10.0 mi SW 4.6 mph - N/A   Clear
4:53 AM 52.0 °F 28.9 °F 41% 29.76 in 10.0 mi West 6.9 mph - N/A   Clear
5:53 AM 55.0 °F 25.0 °F 31% 29.81 in 10.0 mi Variable 3.5 mph - N/A   Clear
6:53 AM 57.0 °F 21.0 °F 25% 29.85 in 10.0 mi West 12.7 mph - N/A   Clear
7:53 AM 63.0 °F 16.0 °F 16% 29.89 in 10.0 mi NW 16.1 mph - N/A   Clear
8:53 AM 68.0 °F 14.0 °F 12% 29.91 in 10.0 mi NNW 20.7 mph 27.6 mph N/A   Clear
9:53 AM 70.0 °F 17.1 °F 13% 29.94 in 10.0 mi North - - N/A   Clear
10:53 AM 72.0 °F 21.0 °F 15% 29.94 in - North - - N/A   Unknown
11:53 AM 73.9 °F 21.9 °F 14% 29.94 in 6.0 mi North 15.0 mph - N/A   Haze
12:53 PM 75.9 °F 21.0 °F 13% 29.92 in 7.0 mi North 11.5 mph 17.3 mph N/A   Clear
1:53 PM 77.0 °F 19.9 °F 12% 29.88 in 7.0 mi North - - N/A   Clear
2:53 PM 77.0 °F 19.9 °F 12% 29.86 in 7.0 mi SSE 6.9 mph - N/A   Clear
3:53 PM 78.1 °F 19.9 °F 11% 29.84 in 7.0 mi Calm Calm - N/A   Clear
4:53 PM 79.0 °F 21.0 °F 12% 29.82 in 8.0 mi ENE 9.2 mph - N/A   Clear
5:53 PM 79.0 °F 19.9 °F 11% 29.80 in 8.0 mi East 11.5 mph - N/A   Clear
6:53 PM 78.1 °F 21.0 °F 12% 29.79 in 9.0 mi ENE 6.9 mph - N/A   Clear
7:53 PM 71.1 °F 24.1 °F 17% 29.82 in 9.0 mi SE 5.8 mph - N/A   Clear
8:53 PM 66.9 °F 23.0 °F 19% 29.82 in 10.0 mi South 6.9 mph - N/A   Clear
9:53 PM 63.0 °F 21.9 °F 21% 29.84 in 10.0 mi SSW 4.6 mph - N/A   Clear
10:53 PM 62.1 °F 23.0 °F 22% 29.85 in 10.0 mi SSW 5.8 mph - N/A   Clear
11:53 PM 66.0 °F 19.9 °F 17% 29.83 in 10.0 mi South 11.5 mph - N/A   Clear